Regional Weather Roundup
Issued by NWS Bismarck, ND

Home | Current Version | Previous Version | Text Only | Print | Product List | Glossary On
Versions: 1 2 3 4 5 6 7 8 9 10 11 12 13 14 15 16 17 18 19 20 21 22 23 24 25 26 27 28 29 30 31 32 33 34 35 36 37 38 39 40 41 42 43 44 45 46 47 48 49 50
000
ASUS43 KBIS 210110
RWRBIS

NWR BROADCAST TEXT
NATIONAL WEATHER SERVICE BISMARCK ND
700 PM CST TUE FEB 20 2018

NOTE: "FAIR" INDICATES FEW OR NO CLOUDS BELOW 12,000 FEET WITH NO
SIGNIFICANT WEATHER AND/OR OBSTRUCTIONS TO VISIBILITY.


CITY           SKY/WX    TMP DP  RH WIND       PRES   REMARKS
WILLISTON      FAIR       1  -8  66 SW14      30.15R WCI -17
MINOT          FAIR       5  -4  66 SW15      30.10R WCI -13
MINOT AFB      FAIR       3  -5  69 W13       30.09R WCI -14
BISMARCK       FAIR       5  -4  66 W8        30.22R WCI  -8
DICKINSON      FAIR      -4 -10  75 W13       30.12R WCI -23
GARRISON         N/A      0  -7  72 W13       30.14R WCI -18
HETTINGER ARPT FAIR      -2  -9  72 W16       30.17R WCI -23
JAMESTOWN      FAIR       5  -2  72 W7        30.18R WCI  -7
CARRINGTON     FAIR       3  -4  72 W8G15     30.18R WCI -10
HAZEN            N/A      3  -4  72 W10       30.20R WCI -12
LINTON           N/A      0  -9  65 W7        30.24R WCI -13
MANDAN         FAIR       1  -4  78 W14       30.19R WCI -17
OAKES            N/A      3  -4  72 SW10      30.25R WCI -12
RUGBY          FAIR       3  -4  72 W15       30.11R WCI -15
STANLEY        FAIR       0  -6  78 W18       30.10R WCI -22
TIOGA          FAIR      -2  -6  84 W17       30.09R WCI -24
WATFORD CITY   FAIR      -2  -9  71 SW12      30.16R WCI -20
$$

CITY           SKY/WX    TMP DP  RH WIND       PRES   REMARKS
GRAND FORKS    FAIR       5  -2  72 SW7       30.19R WCI  -7
GRAND FORKS AF FAIR       2  -6  71 W8        30.18R WCI -12
DEVILS LAKE    FAIR       3  -2  79 SW12      30.14R WCI -13
FARGO          FAIR       4  -2  76 W8        30.24R WCI  -9
CANDO          CLOUDY     5   0  78 W12       30.12S WCI -11
CAVALIER         N/A      7   0  72 SW8       30.14R WCI  -6
GRAFTON        FAIR       3  -2  78 SW10      30.19R WCI -12
GWINNER          N/A      0  -6  78 SW8       30.25R WCI -15
LANGDON        FAIR       5   0  78 W15       30.07R WCI -13
ROLLA          CLOUDY     7   0  72 W14       30.04S WCI -10
WALHALLA       FAIR       7   0  72 W8        30.12R WCI  -6
$$

CITY           SKY/WX    TMP DP  RH WIND       PRES   REMARKS
ABERDEEN       FAIR      -5  -9  83 SW8       30.29R WCI -20
MOBRIDGE       FAIR       3  -6  66 W9        30.23R WCI -12
BUFFALO          N/A     -2 -10  69 W6        30.08R WCI -14
RAPID CITY     FAIR      -6 -11  79 CALM      30.18R
GLASGOW        FAIR      -9 -15  75 NW8       30.15R WCI -25
SIDNEY         FAIR      -4 -10  75 S6        30.19R WCI -16
WOLF POINT     FAIR      -6 -14  68 W8        30.19R WCI -21
GLENDIVE       FAIR      -4 -12  68 SW7       30.18R WCI -18
MILES CITY     FAIR      -2 -10  69 SW5       30.19R WCI -12
BAKER          FAIR      -6 -11  79 SW13      30.15R WCI -25
$$

CITY           SKY/WX    TMP DP  RH WIND       PRES   REMARKS
BILLINGS       FAIR       5  -5  63 SW16      30.11R WCI -14
GREAT FALLS    FAIR       0  -9  65 CALM      30.07R
$$





USA.gov is the U.S. government's official web portal to all federal, state and local government web resources and services.